When you browse on this site, cookies collect data to enhance your experience and personalize the content and advertising you see.
Visit our Privacy Policy to learn more. By continuing to use the site, you agree to this use of cookies and data.
  • In Switzerland
  • List of Countries
  • For 7 days
  • Water Temperature
  • Satellite Maps
  • Weather Map
  • Weather Widgets
  • user-avatar
    Login

    Hourly Weather Tolna

    Today, 26 April, Friday

    Time Temperature Precipitation Wind Pressure Humidity
    00:00 +17°C° 0 mm 2 mps 753 mmHg 73%
    01:00 +17°C° 0 mm 2 mps 753 mmHg 74%
    02:00 +17°C° 0 mm 2 mps 753 mmHg 74%
    03:00 +16°C° 0 mm 2 mps 753 mmHg 74%
    04:00 +16°C° 0 mm 2 mps 753 mmHg 74%
    05:00 +17°C° 0 mm 2 mps 753 mmHg 73%
    06:00 +18°C° 0 mm 3 mps 753 mmHg 72%
    07:00 +20°C° 0 mm 3 mps 753 mmHg 70%
    08:00 +21°C° 0 mm 3 mps 753 mmHg 64%
    09:00 +23°C° 0 mm 4 mps 752 mmHg 59%
    10:00 +26°C° 0 mm 4 mps 752 mmHg 53%
    11:00 +27°C° 0 mm 4 mps 752 mmHg 47%
    12:00 +28°C° 0 mm 5 mps 752 mmHg 42%
    13:00 +29°C° 0 mm 5 mps 751 mmHg 36%
    14:00 +29°C° 0 mm 5 mps 751 mmHg 38%
    15:00 +29°C° 0 mm 4 mps 750 mmHg 40%
    16:00 +29°C° 0 mm 3 mps 749 mmHg 41%
    17:00 +27°C° 0 mm 2 mps 749 mmHg 47%
    18:00 +25°C° 0 mm 1 mps 749 mmHg 52%
    19:00 +21°C° 0 mm 0 mps 749 mmHg 57%
    20:00 +20°C° 0.9 mm 2 mps 749 mmHg 64%
    21:00 +19°C° 0.9 mm 4 mps 750 mmHg 71%
    22:00 +16°C° 0.9 mm 5 mps 750 mmHg 78%
    23:00 +16°C° 0.3 mm 5 mps 750 mmHg 79%

    Tomorrow, 27 April, Saturday

    Time Temperature Precipitation Wind Pressure Humidity
    00:00 +15°C° 0.3 mm 4 mps 751 mmHg 81%
    01:00 +15°C° 0.3 mm 4 mps 751 mmHg 82%
    02:00 +14°C° 0.8 mm 4 mps 751 mmHg 84%
    03:00 +13°C° 0.8 mm 4 mps 751 mmHg 86%
    04:00 +13°C° 0.8 mm 4 mps 751 mmHg 88%
    05:00 +12°C° 0.9 mm 4 mps 751 mmHg 88%
    06:00 +11°C° 0.9 mm 4 mps 752 mmHg 87%
    07:00 +11°C° 0.9 mm 4 mps 752 mmHg 86%
    08:00 +12°C° 0.3 mm 4 mps 752 mmHg 82%
    09:00 +13°C° 0.3 mm 4 mps 752 mmHg 79%
    10:00 +14°C° 0.3 mm 5 mps 752 mmHg 75%
    11:00 +14°C° 0.1 mm 4 mps 752 mmHg 74%
    12:00 +14°C° 0.1 mm 4 mps 752 mmHg 74%
    13:00 +15°C° 0.1 mm 4 mps 752 mmHg 73%
    14:00 +15°C° 0 mm 4 mps 752 mmHg 70%
    15:00 +17°C° 0 mm 4 mps 752 mmHg 67%
    16:00 +16°C° 0 mm 5 mps 751 mmHg 63%
    17:00 +15°C° 0 mm 4 mps 751 mmHg 67%
    18:00 +14°C° 0 mm 3 mps 751 mmHg 71%
    19:00 +14°C° 0 mm 2 mps 751 mmHg 75%
    20:00 +13°C° 0 mm 3 mps 752 mmHg 75%
    21:00 +13°C° 0 mm 3 mps 752 mmHg 76%
    22:00 +12°C° 0 mm 3 mps 752 mmHg 76%
    23:00 +12°C° 0 mm 4 mps 752 mmHg 73%

    Day after tomorrow, 28 April, Sunday

    Time Temperature Precipitation Wind Pressure Humidity
    00:00 +12°C° 0 mm 5 mps 752 mmHg 70%
    01:00 +11°C° 0 mm 6 mps 752 mmHg 66%
    02:00 +11°C° 0 mm 6 mps 752 mmHg 66%
    03:00 +11°C° 0 mm 7 mps 752 mmHg 66%
    04:00 +11°C° 0 mm 7 mps 752 mmHg 66%
    05:00 +11°C° 0 mm 7 mps 752 mmHg 68%
    06:00 +11°C° 0 mm 8 mps 752 mmHg 69%
    07:00 +11°C° 0 mm 8 mps 752 mmHg 70%
    08:00 +12°C° 0 mm 8 mps 752 mmHg 67%
    09:00 +13°C° 0 mm 8 mps 753 mmHg 63%
    10:00 +15°C° 0 mm 8 mps 753 mmHg 60%
    11:00 +15°C° 0 mm 8 mps 753 mmHg 58%
    12:00 +16°C° 0 mm 7 mps 753 mmHg 57%
    13:00 +17°C° 0 mm 7 mps 753 mmHg 55%
    14:00 +16°C° 0 mm 7 mps 752 mmHg 55%
    15:00 +16°C° 0 mm 7 mps 752 mmHg 55%
    16:00 +16°C° 0 mm 6 mps 752 mmHg 55%
    17:00 +15°C° 0 mm 6 mps 752 mmHg 58%
    18:00 +14°C° 0 mm 5 mps 752 mmHg 61%
    19:00 +12°C° 0 mm 4 mps 752 mmHg 65%
    20:00 +12°C° 0 mm 4 mps 752 mmHg 65%
    21:00 +11°C° 0 mm 3 mps 752 mmHg 66%
    22:00 +10°C° 0 mm 3 mps 752 mmHg 67%
    23:00 +10°C° 0 mm 3 mps 752 mmHg 68%

    29 April, Monday

    Time Temperature Precipitation Wind Pressure Humidity
    00:00 +10°C° 0 mm 3 mps 752 mmHg 69%
    01:00 +10°C° 0 mm 3 mps 752 mmHg 70%
    02:00 +9°C° 0 mm 3 mps 752 mmHg 69%
    03:00 +9°C° 0 mm 3 mps 752 mmHg 68%
    04:00 +9°C° 0 mm 3 mps 752 mmHg 67%
    05:00 +10°C° 0 mm 4 mps 752 mmHg 67%
    06:00 +10°C° 0 mm 4 mps 752 mmHg 67%
    07:00 +10°C° 0 mm 5 mps 752 mmHg 67%
    08:00 +12°C° 0 mm 5 mps 752 mmHg 66%
    09:00 +13°C° 0 mm 5 mps 752 mmHg 64%
    10:00 +14°C° 0 mm 6 mps 752 mmHg 62%
    11:00 +13°C° 0.3 mm 6 mps 751 mmHg 65%
    12:00 +13°C° 0.3 mm 6 mps 751 mmHg 69%
    13:00 +11°C° 0.3 mm 7 mps 751 mmHg 72%
    14:00 +13°C° 0.1 mm 6 mps 750 mmHg 72%
    15:00 +13°C° 0.1 mm 6 mps 750 mmHg 71%
    16:00 +13°C° 0.1 mm 6 mps 750 mmHg 71%
    17:00 +13°C° 0 mm 5 mps 750 mmHg 74%
    18:00 +12°C° 0 mm 4 mps 750 mmHg 76%
    19:00 +11°C° 0 mm 3 mps 750 mmHg 79%
    20:00 +11°C° 0 mm 3 mps 750 mmHg 79%
    21:00 +11°C° 0 mm 3 mps 750 mmHg 80%
    22:00 +10°C° 0 mm 3 mps 750 mmHg 80%
    23:00 +10°C° 0 mm 4 mps 750 mmHg 82%

    30 April, Tuesday

    Time Temperature Precipitation Wind Pressure Humidity
    00:00 +8°C° 0 mm 4 mps 750 mmHg 83%
    01:00 +7°C° 0 mm 4 mps 750 mmHg 84%
    02:00 +7°C° 0 mm 4 mps 750 mmHg 87%
    03:00 +7°C° 0 mm 3 mps 749 mmHg 90%
    04:00 +7°C° 0 mm 3 mps 749 mmHg 93%
    05:00 +7°C° 0 mm 4 mps 749 mmHg 89%
    06:00 +8°C° 0 mm 4 mps 749 mmHg 86%
    07:00 +9°C° 0 mm 5 mps 749 mmHg 82%
    08:00 +9°C° 0.1 mm 5 mps 749 mmHg 82%
    09:00 +9°C° 0.1 mm 5 mps 749 mmHg 81%
    10:00 +9°C° 0.1 mm 5 mps 749 mmHg 81%
    11:00 +10°C° 0.1 mm 5 mps 749 mmHg 80%
    12:00 +11°C° 0.1 mm 4 mps 749 mmHg 79%
    13:00 +12°C° 0.1 mm 4 mps 749 mmHg 78%
    14:00 +12°C° 0 mm 4 mps 749 mmHg 77%
    15:00 +12°C° 0 mm 4 mps 748 mmHg 76%
    16:00 +13°C° 0 mm 4 mps 748 mmHg 76%
    17:00 +12°C° 0 mm 4 mps 749 mmHg 80%
    18:00 +11°C° 0 mm 3 mps 749 mmHg 85%
    19:00 +10°C° 0 mm 3 mps 749 mmHg 90%
    20:00 +10°C° 0 mm 3 mps 749 mmHg 91%
    21:00 +9°C° 0 mm 3 mps 749 mmHg 93%
    22:00 +9°C° 0 mm 3 mps 750 mmHg 94%
    23:00 +9°C° 0.1 mm 3 mps 750 mmHg 95%

    1 May, Wednesday

    Time Temperature Precipitation Wind Pressure Humidity
    00:00 +9°C° 0.1 mm 2 mps 750 mmHg 96%
    01:00 +10°C° 0.1 mm 2 mps 750 mmHg 97%
    02:00 +10°C° 0.5 mm 2 mps 750 mmHg 96%
    03:00 +10°C° 0.5 mm 3 mps 750 mmHg 95%
    04:00 +10°C° 0.5 mm 3 mps 750 mmHg 94%
    05:00 +11°C° 0.1 mm 3 mps 750 mmHg 91%
    06:00 +12°C° 0.1 mm 4 mps 751 mmHg 87%
    07:00 +12°C° 0.1 mm 4 mps 751 mmHg 83%
    08:00 +14°C° 0.1 mm 4 mps 751 mmHg 75%
    09:00 +15°C° 0.1 mm 4 mps 751 mmHg 67%
    10:00 +17°C° 0.1 mm 4 mps 751 mmHg 60%
    11:00 +18°C° 0.1 mm 3 mps 751 mmHg 57%
    12:00 +18°C° 0.1 mm 3 mps 751 mmHg 55%
    13:00 +18°C° 0.1 mm 3 mps 751 mmHg 52%
    14:00 +19°C° 0.1 mm 3 mps 751 mmHg 52%
    15:00 +19°C° 0.1 mm 3 mps 751 mmHg 52%
    16:00 +19°C° 0.1 mm 3 mps 751 mmHg 52%
    17:00 +17°C° 0 mm 2 mps 751 mmHg 58%
    18:00 +15°C° 0 mm 2 mps 751 mmHg 63%
    19:00 +14°C° 0 mm 1 mps 751 mmHg 69%
    20:00 +13°C° 0 mm 1 mps 751 mmHg 71%
    21:00 +12°C° 0 mm 2 mps 751 mmHg 73%
    22:00 +12°C° 0 mm 2 mps 752 mmHg 75%
    23:00 +10°C° 0 mm 2 mps 752 mmHg 76%
    Show more